Location: Bratislava
(48.1500°N, 17.1170°E)
Time: 02:41:43
(UTC+02:00)

Envisat - Visible Passes

Search period start: 25 April 2017 00:00
Search period end: 05 May 2017 00:00
Orbit: 764 x 766 km, 98.2° (Epoch: 23 April)

Date Brightness Start Highest point End Pass type
(mag) Time Alt. Az. Time Alt. Az. Time Alt. Az.
25 Apr 3.1 20:50:03 10° SSE 20:55:07 85° WSW 21:00:15 10° NNW visible
25 Apr 5.7 22:32:57 10° WSW 22:34:56 12° W 22:36:54 10° WNW visible
26 Apr 5.0 21:53:36 10° SSW 21:57:46 25° W 22:01:57 10° NW visible
27 Apr 3.8 21:15:54 10° S 21:20:49 51° W 21:25:48 10° NNW visible
28 Apr 3.0 20:39:00 10° SSE 20:44:05 79° ENE 20:49:11 10° NNW visible
28 Apr 5.5 22:20:47 10° WSW 22:23:43 15° W 22:26:39 10° NW visible
29 Apr 4.7 21:42:09 10° SSW 21:46:37 31° W 21:51:07 10° NNW visible
30 Apr 3.5 21:04:42 10° S 21:09:44 63° WSW 21:14:48 10° NNW visible
01 May 5.4 22:08:59 10° SW 22:12:32 19° W 22:16:05 10° NW visible
02 May 4.3 21:30:47 10° SSW 21:35:29 38° W 21:40:14 10° NNW visible
03 May 3.2 20:53:35 10° S 20:58:40 78° WSW 21:03:47 10° NNW visible
03 May 5.8 22:37:12 10° W 22:38:32 11° W 22:39:53 10° WNW visible
04 May 5.1 21:57:22 10° SW 22:01:21 23° W 22:05:23 10° NW visible
